[[{"header":{"parameterUnit":"m.s-1","parameterCategory":1,"la1":30.2991,"la2":30.254,"lo1":-89.0895,"lo2":-89.0444,"dy":0.0017,"dx":0.0017,"nx":28,"ny":28,"refTime":"2023-08-17T21:00:00:Z","depth":0,"parameterNumber":2,"parameterNumberName":"U-component_of_WINDS"},"data":[0,0,0,0,0,0,0,0,0,0,0,0,0,0,0,0,0,0,0,0,0,0,0,0,0,0,0,0,0,0,0,0,0,0,0,0,0,0,0,0,0,0,0,0,0,0,0,0,0,0,0,0,0,0,0,0,0,0,-0.0421,-0.042,0,-0.034,-0.0339,-0.0338,-0.0304,-0.0304,-0.0304,-0.0304,-0.022,-0.0217,-0.0215,0,0,0,0,0,0,0,0,0,0,0,0,0,-0.0546,-0.0544,-0.0421,-0.042,-0.0419,-0.034,-0.0339,-0.0337,-0.0304,-0.0304,-0.0304,-0.0304,-0.0221,-0.0218,-0.0215,0,0,0,0,0,0,0,0,0,0,0,0,0,-0.0481,-0.0543,-0.0421,-0.0392,-0.0389,-0.034,-0.0339,-0.0337,-0.0304,-0.0304,-0.0304,-0.0304,-0.0221,-0.0218,-0.0214,-0.0187,0,0,-0.0203,-0.0202,0,0,0,0,0,0,0,0,-0.0485,-0.0476,-0.0398,-0.0394,-0.039,-0.0332,-0.0352,-0.0287,-0.0304,-0.0336,-0.0304,-0.0305,-0.0257,-0.025,-0.0235,-0.0183,-0.018,-0.0203,-0.0201,-0.0199,-0.0198,0,0,0,0,0,0,0,-0.0489,-0.048,-0.0389,-0.0396,-0.0392,-0.0383,-0.0375,-0.0339,-0.0296,-0.0333,-0.0331,-0.0322,-0.0255,-0.0238,-0.0232,-0.0178,-0.0203,-0.02,-0.0198,-0.0196,-0.0102,-0.0101,0,0,0,0,0,0,-0.0498,-0.0484,-0.0391,-0.0386,-0.0439,-0.0381,-0.0371,-0.0351,-0.0296,-0.0288,-0.0321,-0.032,-0.0244,-0.0237,-0.0229,-0.0194,-0.0199,-0.0196,-0.0194,-0.0102,-0.0102,-0.0101,0,0,0,0,0,0,-0.0501,-0.0491,-0.0394,-0.0434,-0.0421,-0.0379,-0.0356,-0.0349,-0.0332,-0.0287,-0.0279,-0.0312,-0.0244,-0.0234,-0.0198,-0.0191,-0.0194,-0.0191,-0.0102,-0.0102,-0.0101,-0.0124,0,0,0,0,0,0,-0.0505,-0.0492,-0.0481,-0.0434,-0.0419,-0.0365,-0.0355,-0.0347,-0.0326,-0.0324,-0.0277,-0.0269,-0.0243,-0.0204,-0.0195,-0.0186,-0.0188,-0.0103,-0.0102,-0.0102,-0.0124,-0.0124,-0.0125,0,0,0,0,0,-0.051,-0.049,-0.0481,-0.047,-0.0405,-0.0365,-0.0356,-0.0327,-0.0326,-0.0314,-0.0286,-0.0271,-0.0193,-0.02,-0.019,-0.018,-0.0103,-0.0102,-0.0102,-0.0123,-0.0124,-0.0125,0,0,0,0,0,0,-0.0537,-0.0483,-0.0472,-0.0437,-0.0406,-0.0359,-0.0344,-0.0329,-0.0297,-0.0296,-0.0262,-0.0251,-0.0218,-0.0195,-0.0204,-0.0151,-0.0147,-0.0144,-0.0167,-0.0168,-0.0168,-0.0174,-0.0185,0,0,0,0,0,-0.0539,-0.0511,-0.0466,-0.0439,-0.0424,-0.0387,-0.0368,-0.0349,-0.0315,-0.0301,-0.027,-0.0237,-0.0206,-0.0185,-0.0154,-0.0121,-0.011,-0.0109,-0.0109,-0.011,-0.0107,-0.0089,-0.0088,-0.0099,-0.0099,-0.0099,0,0,-0.0542,-0.051,-0.0494,-0.0444,-0.0417,-0.0389,-0.0376,-0.0346,-0.0325,-0.0296,-0.0261,-0.0237,-0.0198,-0.0164,-0.0147,-0.0143,-0.0102,-0.0109,-0.011,-0.0107,-0.0088,-0.0087,-0.0086,-0.0098,-0.0098,-0.0098,0,0,-0.0534,-0.0507,-0.0482,-0.0456,-0.0416,-0.0392,-0.0386,-0.0341,-0.0325,-0.0289,-0.0267,-0.0241,-0.0187,-0.0161,-0.014,-0.0123,-0.0108,-0.0114,-0.0117,-0.0099,-0.0098,-0.0097,-0.0091,-0.009,-0.0112,-0.0112,-0.0112,0,-0.0544,-0.05,-0.0471,-0.0443,-0.0421,-0.0395,-0.037,-0.0346,-0.0298,-0.0283,-0.0281,-0.0213,-0.0185,-0.0144,-0.014,-0.0125,-0.0117,-0.0119,-0.0101,-0.0099,-0.0098,-0.0092,-0.009,-0.0113,-0.0113,-0.0113,-0.0113,0,-0.0514,-0.0484,-0.0469,-0.0424,-0.04,-0.0374,-0.034,-0.0321,-0.0304,-0.028,-0.0244,-0.0209,-0.0171,-0.016,-0.0143,-0.0117,-0.0116,-0.0107,-0.0102,-0.0099,-0.0092,-0.009,-0.0115,-0.0114,-0.0114,-0.0114,0,0,-0.052,-0.0459,-0.0454,-0.0434,-0.0388,-0.0365,-0.0337,-0.03,-0.0284,-0.0252,-0.0228,-0.0184,-0.0176,-0.0152,-0.0132,-0.0117,-0.0106,-0.011,-0.0108,-0.011,-0.0076,-0.0082,-0.008,-0.0096,-0.0096,-0.0095,-0.0079,0,-0.0506,-0.0455,-0.0428,-0.0389,-0.0362,-0.0337,-0.0313,-0.0283,-0.026,-0.0233,-0.0208,-0.0177,-0.0169,-0.0155,-0.0139,-0.0111,-0.0099,-0.0112,-0.0073,-0.0072,-0.0083,-0.0077,-0.0083,-0.007,-0.0076,-0.0076,-0.0076,0,-0.0482,-0.0451,-0.041,-0.0368,-0.0355,-0.0334,-0.0299,-0.0273,-0.0239,-0.0223,-0.0198,-0.0178,-0.0148,-0.0146,-0.0105,-0.0114,-0.0097,-0.0081,-0.008,-0.0075,-0.0073,-0.0072,-0.0065,-0.0063,-0.0072,-0.0072,-0.0072,0,-0.0491,-0.0439,-0.0407,-0.039,-0.0341,-0.0327,-0.0306,-0.0271,-0.0251,-0.022,-0.0206,-0.0172,-0.0153,-0.0127,-0.0098,-0.0099,-0.006,-0.0055,-0.0046,-0.0047,-0.0038,-0.0039,-0.0028,-0.0027,-0.0028,-0.0028,-0.0028,0,-0.0478,-0.0453,-0.041,-0.0391,-0.0363,-0.0333,-0.0306,-0.0283,-0.0253,-0.0228,-0.0205,-0.0183,-0.0147,-0.012,-0.0098,-0.0067,-0.0058,-0.0045,-0.0039,-0.0047,-0.0049,-0.0035,-0.0035,-0.0027,-0.0027,-0.0027,-0.0027,0,-0.0482,-0.0453,-0.0417,-0.0374,-0.0362,-0.0343,-0.0306,-0.0287,-0.0263,-0.0233,-0.0224,-0.0187,-0.0154,-0.0124,-0.008,-0.0065,-0.0034,-0.0027,-0.0046,-0.0043,-0.0035,-0.0036,-0.0015,-0.0011,-0.0014,-0.0014,-0.0014,0,-0.0476,-0.0457,-0.0412,-0.0394,-0.0373,-0.0345,-0.0324,-0.0294,-0.0273,-0.0233,-0.0218,-0.0184,-0.0155,-0.0105,-0.0074,-0.004,-0.0032,-0.0027,-0.0027,-0.0035,-0.0032,-0.0033,-0.0031,-0.0027,-0.0027,-0.0027,-0.0028,0,-0.0468,-0.0454,-0.0425,-0.0391,-0.0368,-0.0339,-0.0311,-0.0297,-0.0262,-0.024,-0.0207,-0.0184,-0.014,-0.0107,-0.007,-0.0048,-0.0032,-0.0028,-0.0024,-0.0031,-0.0043,-0.0037,-0.0047,-0.0028,-0.0028,-0.0028,-0.0028,-0.0028,-0.0466,-0.0448,-0.0414,-0.0383,-0.0358,-0.0332,-0.0311,-0.0286,-0.0257,-0.022,-0.0203,-0.017,-0.0136,-0.0086,-0.0064,-0.0037,-0.0034,-0.0028,-0.0026,-0.0025,-0.0027,-0.0048,-0.0031,-0.003,-0.003,-0.003,-0.003,0,-0.0457,-0.0434,-0.0405,-0.0366,-0.0342,-0.0329,-0.0297,-0.0277,-0.0248,-0.0218,-0.0191,-0.0153,-0.0121,-0.0088,-0.0053,-0.0038,-0.003,-0.0031,-0.0031,-0.0026,-0.0032,-0.0039,-0.0038,-0.0038,-0.0038,-0.0038,-0.0038,-0.0038,-0.0449,-0.0417,-0.04,-0.0357,-0.0334,-0.0301,-0.0284,-0.0259,-0.0236,-0.0194,-0.0168,-0.0147,-0.0116,-0.0079,-0.0049,-0.004,-0.0029,-0.0031,-0.002,-0.0026,-0.0026,-0.0025,-0.0032,-0.0029,-0.0029,-0.0016,-0.0016,-0.0016]},{"header":{"parameterUnit":"m.s-1","parameterCategory":1,"la1":30.2991,"la2":30.254,"lo1":-89.0895,"lo2":-89.0444,"dy":0.0017,"dx":0.0017,"nx":28,"ny":28,"refTime":"2023-08-17T21:00:00:Z","depth":0,"parameterNumber":3,"parameterNumberName":"V-component_of_WINDS"},"data":[0,0,0,0,0,0,0,0,0,0,0,0,0,0,0,0,0,0,0,0,0,0,0,0,0,0,0,0,0,0,0,0,0,0,0,0,0,0,0,0,0,0,0,0,0,0,0,0,0,0,0,0,0,0,0,0,0,0,4.5307,4.5306,0,4.5228,4.5227,4.5226,4.5178,4.5177,4.5177,4.5177,4.5091,4.5089,4.5087,0,0,0,0,0,0,0,0,0,0,0,0,0,4.541,4.5408,4.5307,4.5306,4.5305,4.5228,4.5227,4.5226,4.5178,4.5177,4.5177,4.5177,4.5091,4.5089,4.5086,0,0,0,0,0,0,0,0,0,0,0,0,0,4.5352,4.5408,4.5308,4.5272,4.5268,4.5229,4.5227,4.5226,4.5178,4.5177,4.5177,4.5177,4.5092,4.5089,4.5086,4.5074,0,0,4.5077,4.5075,0,0,0,0,0,0,0,0,4.5355,4.5348,4.5278,4.5274,4.527,4.5213,4.5232,4.5175,4.5178,4.5212,4.5177,4.5177,4.5131,4.5125,4.5111,4.507,4.5066,4.5076,4.5074,4.5073,4.5072,0,0,0,0,0,0,0,4.5359,4.5351,4.5276,4.5277,4.5272,4.5258,4.5249,4.5221,4.5174,4.5209,4.5205,4.5197,4.5129,4.5114,4.5108,4.5065,4.5076,4.5074,4.5072,4.507,4.5007,4.5008,0,0,0,0,0,0,4.537,4.5355,4.5278,4.5274,4.5313,4.5256,4.5247,4.5231,4.5175,4.5166,4.5197,4.5195,4.5119,4.5112,4.5105,4.5085,4.5073,4.507,4.5068,4.5007,4.5007,4.5008,0,0,0,0,0,0,4.5372,4.5363,4.5282,4.5313,4.5302,4.5255,4.5238,4.523,4.5215,4.5166,4.5157,4.5191,4.5119,4.5109,4.5082,4.5082,4.5069,4.5066,4.5007,4.5007,4.5007,4.5048,0,0,0,0,0,0,4.5375,4.5364,4.5361,4.5313,4.53,4.5262,4.5238,4.5229,4.521,4.5206,4.5157,4.5149,4.5118,4.5087,4.5079,4.5077,4.5063,4.5007,4.5007,4.5007,4.5046,4.5049,4.5052,0,0,0,0,0,4.5379,4.5375,4.5361,4.5352,4.5295,4.5262,4.5254,4.522,4.5211,4.5205,4.5173,4.515,4.5083,4.5084,4.5075,4.5073,4.5007,4.5007,4.5007,4.5045,4.5049,4.5052,0,0,0,0,0,0,4.5422,4.5368,4.5352,4.5333,4.5303,4.5254,4.5247,4.5226,4.5196,4.5194,4.5151,4.514,4.5116,4.5091,4.5094,4.5056,4.5042,4.5041,4.5074,4.5077,4.508,4.5086,4.5061,0,0,0,0,0,4.543,4.541,4.5362,4.535,4.5336,4.5294,4.5278,4.5255,4.5221,4.5207,4.5173,4.514,4.511,4.5092,4.5063,4.5042,4.5029,4.5035,4.5038,4.5041,4.504,4.5025,4.5026,4.5009,4.5009,4.5009,0,0,4.5445,4.5413,4.5402,4.5358,4.5332,4.5309,4.5284,4.5261,4.5243,4.5203,4.5175,4.5149,4.5108,4.5083,4.5071,4.5062,4.5042,4.5042,4.5044,4.5041,4.5025,4.5027,4.5028,4.5009,4.5009,4.5009,0,0,4.5461,4.5436,4.5421,4.5396,4.5356,4.5328,4.5325,4.5279,4.5261,4.5232,4.5201,4.5178,4.5129,4.5101,4.508,4.5083,4.506,4.5075,4.509,4.5075,4.5077,4.5078,4.5077,4.5077,4.5074,4.5074,4.5074,0,4.5484,4.5451,4.5416,4.5396,4.5376,4.534,4.5323,4.5299,4.5252,4.5238,4.523,4.5167,4.5137,4.5104,4.5105,4.509,4.5082,4.508,4.508,4.508,4.5081,4.5079,4.5079,4.5076,4.5076,4.5076,4.5076,0,4.548,4.5458,4.5451,4.5407,4.5387,4.5368,4.5329,4.5311,4.5289,4.5261,4.5231,4.5194,4.5155,4.5146,4.5123,4.5108,4.5104,4.5088,4.5073,4.5085,4.5083,4.5082,4.5079,4.5078,4.5078,4.5077,0,0,4.5522,4.5459,4.5457,4.5436,4.5389,4.537,4.5348,4.5313,4.5298,4.5266,4.5245,4.5204,4.5189,4.5165,4.5139,4.5126,4.5128,4.5111,4.5109,4.5114,4.5107,4.5119,4.5119,4.5113,4.5112,4.5112,4.511,0,4.5529,4.5492,4.5459,4.5433,4.541,4.5374,4.5355,4.5323,4.5296,4.5271,4.524,4.5211,4.5194,4.5179,4.5165,4.5131,4.5126,4.5131,4.5091,4.509,4.5102,4.5119,4.5131,4.5131,4.5109,4.5109,4.5109,0,4.5534,4.5505,4.5476,4.5431,4.542,4.5404,4.5367,4.5344,4.5306,4.5287,4.526,4.5232,4.5205,4.5193,4.5153,4.5158,4.5139,4.5119,4.5118,4.5113,4.51,4.5112,4.5131,4.513,4.5108,4.5108,4.5108,0,4.5565,4.5518,4.5495,4.5478,4.5425,4.5414,4.539,4.5352,4.5332,4.5299,4.5285,4.5249,4.5228,4.52,4.5162,4.5156,4.5125,4.511,4.5107,4.5108,4.5102,4.5102,4.5116,4.5091,4.5091,4.5091,4.5091,0,4.5577,4.556,4.5508,4.5494,4.5473,4.5435,4.5415,4.5388,4.5354,4.5331,4.5298,4.5277,4.5229,4.5201,4.5171,4.5142,4.5133,4.5115,4.5107,4.5118,4.512,4.5104,4.5103,4.5091,4.5091,4.5091,4.5091,0,4.5608,4.5573,4.5544,4.5496,4.5483,4.547,4.5427,4.5411,4.5381,4.5353,4.5344,4.5298,4.5264,4.5223,4.5175,4.5155,4.5128,4.5116,4.5141,4.5137,4.5135,4.5135,4.5139,4.5137,4.5114,4.5115,4.5115,0,4.5617,4.5604,4.5554,4.5538,4.5516,4.549,4.5469,4.543,4.5409,4.5364,4.5352,4.5315,4.5284,4.523,4.5191,4.5153,4.514,4.5144,4.5134,4.5145,4.5138,4.5139,4.5137,4.5146,4.5147,4.5147,4.5147,0,4.5637,4.562,4.5593,4.5559,4.5536,4.5507,4.5476,4.5464,4.5417,4.5395,4.5361,4.5337,4.5288,4.5251,4.5209,4.5182,4.5156,4.5151,4.5148,4.5158,4.5173,4.5163,4.5148,4.5151,4.515,4.515,4.515,4.515,4.5656,4.5642,4.5605,4.5575,4.5548,4.552,4.5501,4.547,4.5442,4.54,4.5378,4.5343,4.5303,4.5243,4.5217,4.5187,4.5178,4.5174,4.5173,4.5173,4.5175,4.5178,4.5179,4.5179,4.5179,4.5179,4.5179,0,4.5673,4.5647,4.562,4.5579,4.5555,4.5535,4.5499,4.548,4.5451,4.5416,4.5386,4.5345,4.5309,4.5266,4.5227,4.5211,4.5198,4.5202,4.5202,4.5196,4.5186,4.5192,4.5213,4.5213,4.5213,4.5213,4.5213,4.5213,4.5679,4.5654,4.5632,4.5592,4.5565,4.5533,4.5514,4.5487,4.5459,4.5416,4.5387,4.536,4.532,4.5278,4.5242,4.523,4.5217,4.5224,4.5208,4.52,4.5197,4.5194,4.52,4.5222,4.5222,4.522,4.522,4.522]}]]